Location: Newark
(48.5156°N, 1.8989°W)
Time: 00:11:16
(UTC+00:00)

ISS - Visible Passes

Search period start: 24 September 2020 00:00
Search period end: 04 October 2020 00:00
Orbit: 419 x 420 km, 51.6° (Epoch: 24 September)

Date Brightness Start Highest point End Pass type
(mag) Time Alt. Az. Time Alt. Az. Time Alt. Az.
24 Sep -3.1 19:43:33 10° W 19:46:51 49° N 19:47:47 36° NE visible
24 Sep -0.3 21:20:36 10° WNW 21:20:45 11° WNW 21:20:45 11° WNW visible
25 Sep -3.2 18:56:03 10° W 18:59:23 54° N 19:02:10 14° ENE visible
25 Sep -1.8 20:33:11 10° WNW 20:35:08 30° NW 20:35:08 30° NW visible
26 Sep -3.2 19:45:44 10° WNW 19:49:02 48° N 19:49:29 44° NNE visible
27 Sep -3.0 18:58:15 10° WNW 19:01:32 47° N 19:03:50 17° ENE visible
27 Sep -1.5 20:35:12 10° WNW 20:36:47 25° WNW 20:36:47 25° WNW visible
28 Sep -3.6 19:47:47 10° WNW 19:51:08 64° NNE 19:51:08 64° NNE visible
29 Sep -3.3 19:00:19 10° WNW 19:03:38 53° N 19:05:29 23° E visible
29 Sep -1.1 20:37:12 10° WNW 20:38:26 20° W 20:38:26 20° W visible
30 Sep -3.1 18:12:50 10° WNW 18:16:07 48° N 18:19:25 10° E visible
30 Sep -3.5 19:49:42 10° WNW 19:52:48 68° WSW 19:52:48 68° WSW visible
01 Oct -3.8 19:02:15 10° WNW 19:05:38 81° NNE 19:07:11 30° ESE visible
01 Oct -0.8 20:39:23 10° W 20:40:09 14° W 20:40:09 14° W visible
02 Oct -3.6 18:14:47 10° WNW 18:18:09 64° NNE 18:21:30 10° E visible
02 Oct -2.5 19:51:43 10° WNW 19:54:35 35° SW 19:54:35 35° SW visible
03 Oct -3.2 19:04:09 10° WNW 19:07:27 53° SSW 19:09:05 26° SE visible
